Miscellaneous Local Product
Issued by NWS Hastings, NE

Home | Current Version | Previous Version | Text Only | Print | Product List | Glossary Off
Versions: 1 2 3 4 5 6 7 8 9 10 11 12 13 14 15 16 17 18 19 20 21 22 23 24 25 26 27 28 29 30 31 32 33 34 35 36 37 38 39 40 41 42 43 44 45 46 47 48 49 50

743
AXUS43 KGID 240302
MISGRI

GID CWA HOURLY WEATHER ROUNDUP
NATIONAL WEATHER SERVICE HASTINGS NE
900 PM CST MON JAN 23 2017

NOTE: "FAIR" INDICATES FEW OR NO CLOUDS BELOW 12,000 FEET WITH NO
SIGNIFICANT WEATHER AND/OR OBSTRUCTIONS TO VISIBILITY.

...SOUTH CENTRAL NEBRASKA...

CITY           SKY/WX    TMP DP  RH WIND       PRES   REMARKS
GRAND ISLAND   CLOUDY    32  32 100 SE13G21   29.72R WCI  22
HASTINGS       CLOUDY    33  31  92 SE14      29.70F FOG     WCI  23
KEARNEY        CLOUDY    34  30  86 SE16      29.67S WCI  23
ORD            CLOUDY    33  30  88 SE14      29.71R FOG     WCI  23
YORK           CLEAR     32  32 100 SE16      29.75R FOG     WCI  21
AURORA         CLOUDY    32  32 100 SE17      29.72S FOG     WCI  21
LEXINGTON      FOG       33  32  97 E9        29.64S VSB 1/2 WCI  25
HOLDREGE       CLEAR     32  31  95 E12       29.65R WCI  23
HEBRON         CLOUDY    33  33 100 SE9       29.74F FOG     WCI  25

...NEBRASKA PANHANDLE...

CITY           SKY/WX    TMP DP  RH WIND       PRES   REMARKS
CHADRON        FOG       24  23  96 NE13      29.69S VSB 1/2 WCI  12
ALLIANCE       CLOUDY    31  26  82 N12       29.59R WCI  22
SCOTTSBLUFF    CLOUDY    35  27  72 NE8       29.57S WCI  29
SIDNEY         CLOUDY    34  27  75 E7        29.56F WCI  28

...WESTERN AND NORTH CENTRAL NEBRASKA...

CITY           SKY/WX    TMP DP  RH WIND       PRES   REMARKS
VALENTINE      PTCLDY    28  25  88 NE8       29.67R WCI  20
AINSWORTH      MOCLDY    30  30 100 SE10      29.67R WCI  21
ONEILL         CLOUDY    33  32  97 SE13      29.74R WCI  23
BROKEN BOW     FOG       32  31  96 E10       29.67R VSB 1/4 WCI  24
IMPERIAL       CLOUDY    38  29  70 E9        29.56S WCI  31
NORTH PLATTE   CLEAR     30  27  88 E7        29.60S WCI  23
MCCOOK         CLOUDY    37  31  78 E9        29.58R WCI  30

...EASTERN NEBRASKA...

CITY           SKY/WX    TMP DP  RH WIND       PRES   REMARKS
NORFOLK        CLOUDY    31  28  89 E12       29.77F WCI  22
SO SIOUX CITY  CLOUDY    34  30  85 SE6       29.84R WCI  29
TEKAMAH        CLOUDY    32  28  85 SE7       29.84R WCI  26
COLUMBUS       CLOUDY    30  28  93 E12       29.79R WCI  21
ALBION         CLOUDY    33  30  88 SE12      29.76S FOG     WCI  24
OMAHA EPPLEY   CLOUDY    33  27  78 SE9       29.84S WCI  25
OFFUTT AFB     CLOUDY    32  32  99 E8        29.83S WCI  25
MILLARD        CLOUDY    34  31  87 SE8       29.83S WCI  27
LINCOLN        CLOUDY    33  30  88 E9        29.82R WCI  25
NEBRASKA CITY  PTCLDY    32  31  96 SE9       29.82S WCI  24
BEATRICE       CLOUDY    33  32  94 SE9       29.77F FOG     WCI  26
FALLS CITY     CLEAR     29  27  92 E7        29.82S WCI  22

...NORTHERN KANSAS...

CITY           SKY/WX    TMP DP  RH WIND       PRES   REMARKS
GOODLAND       CLEAR     32  26  78 E6        29.51F WCI  26
HILL CITY      CLEAR     42  35  76 SE10      29.58F
NORTON         CLEAR     37  28  70 E8        29.59S WCI  31
PHILLIPSBURG   CLEAR     37  30  75 NE10      29.63S WCI  30
SMITH CENTER   CLEAR     37  30  75 E15       29.65S WCI  28
HAYS           CLEAR     39  33  79 SE10      29.61F WCI  32
RUSSELL        CLEAR     40  32  73 SE17      29.61F WCI  31
CONCORDIA      CLEAR     35  34  96 E10       29.72S WCI  27
SALINA         CLEAR     45  32  60 E9        29.71F
TOPEKA         CLEAR     34  30  85 E7        29.81F WCI  28



USA.gov is the U.S. government's official web portal to all federal, state and local government web resources and services.